Simultaneous Nadir Overpasses (SNOs) Predictions

Prediction of SNOs between AQUA and METOP-A Satellite Orbit:

Table of predicted SNOs for the next 14.0 days since TLE Epoch: 11/29/2021
Index Date (AQUA) Time (AQUA) Lat,Lon (AQUA) SZA (AQUA ) Date (METOP-A) Time (METOP-A) Lat,Lon (METOP-A) SZA (METOP-A ) Distance(km) Time Diff (sec)
1 12/09/2021 16:03:21 -77.91, 101.00 78.83 12/09/2021 16:04:18 -77.91, 101.09 78.85 2.09 57
2 12/09/2021 16:52:56 78.26, -93.01 101.61 12/09/2021 16:54:01 78.28, -89.49 101.43 79.67 65
3 12/09/2021 17:42:14 -77.90, 76.29 78.83 12/09/2021 17:42:45 -77.90, 76.46 78.85 3.92 31
4 12/09/2021 18:31:41 77.90,-116.08 101.18 12/09/2021 18:32:37 77.91,-115.95 101.17 3.10 56
5 12/09/2021 19:21:06 -77.86, 51.78 78.88 12/09/2021 19:21:13 -77.85, 51.61 78.88 3.91 7
6 12/09/2021 20:10:34 77.90,-140.79 101.18 12/09/2021 20:11:05 77.87,-140.74 101.15 3.38 31
7 12/09/2021 20:59:59 -77.86, 27.06 78.88 12/09/2021 20:59:40 -77.85, 26.98 78.88 2.25 19
8 12/09/2021 21:49:26 77.86,-165.30 101.13 12/09/2021 21:49:32 77.88,-165.33 101.16 2.54 6
9 12/09/2021 22:38:52 -77.85, 2.35 78.87 12/09/2021 22:38:07 -77.84, 2.35 78.87 1.33 45
10 12/09/2021 23:28:19 77.85, 169.99 101.14 12/09/2021 23:28:00 77.84, 169.88 101.14 3.01 19
11 12/10/2021 00:17:45 -77.85, -22.36 78.87 12/10/2021 00:16:34 -77.84, -22.29 78.87 2.32 71
12 12/10/2021 01:07:12 77.85, 145.28 101.14 12/10/2021 01:06:27 77.84, 145.29 101.14 0.94 45
13 12/10/2021 02:46:05 77.85, 120.56 101.15 12/10/2021 02:44:54 77.85, 120.70 101.15 3.09 71



Historial Predications of SNOs between AQUA and METOP-A
